This demonstration page uses our WeatherBlox Daily Observations layout. Learn more.

Left ArrowRight Arrow

Hourly Observations for March 3, 2019

Temp ( °F °C ) Dew Point ( °F °C ) Humidity (%) Winds ( mph kmh ) Pressure ( in mb ) Visibility ( mi km ) Precip ( " mm )
12:17 am 00:17 Windy with Snow Likely 3 -16 0 -18 85 85 N 22 35 30.65 1038 3 4 0.00 0.03
12:25 am 00:25 Windy with Snow Likely 3 -16 0 -18 85 85 N 22 35 30.64 1038 3 5 0.00 0.00
12:53 am 00:53 Windy with Snow Likely 3 -16 -2 -19 78 78 N 25 41 30.65 1038 3 4 0.00 0.03
1:09 am 01:09 Windy with Snow Likely 1 -17 -2 -19 85 85 N 21 33 30.67 1039 4 6 0.00 0.03
1:49 am 01:49 Windy with Snow Likely 1 -17 -2 -19 85 85 N 20 31 30.69 1039 3 4 0.00 0.03
1:57 am 01:57 Windy with Snow Likely 2 -16.7 -2 -18.9 83 83 N 22 35 30.58 1035 2 3 0.00 0.03
2:57 am 02:57 Cloudy with Light Snow 1 -17.2 -3 -19.4 83 83 N 16 26 30.59 1036 2 3 0.00 0.03
3:15 am 03:15 Windy with Snow Likely 0 -18 -4 -20 84 84 N 22 35 30.71 1040 2 3 0.00 0.03
3:24 am 03:24 Windy with Snow Likely 0 -18 -4 -20 84 84 N 20 31 30.71 1040 3 4 0.00 0.03
3:39 am 03:39 Windy with Snow Likely 0 -18 -6 -21 78 78 N 20 31 30.70 1040 2 3 0.00 0.03
3:53 am 03:53 Windy with Snow Likely 0 -18 -6 -21 78 78 N 21 33 30.70 1040 2 3 0.00 0.00
3:57 am 03:57 Windy with Snow Likely -1 -18.3 -5 -20.6 82 82 N 20 31 30.59 1036 2 3 0.00 0.03
4:07 am 04:07 Windy with Snow Likely 0 -18 -6 -21 78 78 N 21 33 30.71 1040 2 3 0.00 0.00
4:18 am 04:18 Cloudy with Light Snow 0 -18 -6 -21 78 78 N 17 28 30.71 1040 3 5 0.00 0.03
4:57 am 04:57 Cloudy with Light Snow -2 -18.9 -6 -21.1 83 83 N 18 30 30.60 1036 3 5 0.00 0.03
5:57 am 05:57 Cloudy with Light Snow -2 -18.9 -7 -21.7 79 79 N 18 30 30.62 1037 4 6 0.00 0.03
6:25 am 06:25 Cloudy with Light Snow -2 -19 -8 -22 77 77 N 18 30 30.76 1041 2 3 0.00 0.03
6:36 am 06:36 Cloudy with Light Snow -2 -19 -8 -22 77 77 N 16 26 30.76 1041 4 6 0.00 0.03
6:57 am 06:57 Windy with Snow Likely -3 -19.4 -8 -22.2 79 79 N 20 31 30.63 1037 5 8 0.00 0.03
7:57 am 07:57 Mostly Cloudy with Light Snow -3 -19.4 -10 -23.3 71 71 N 14 22 30.64 1038 8 13 0.00 0.03
8:57 am 08:57 Cloudy with Light Snow -3 -19.4 -11 -23.9 68 68 N 16 26 30.66 1038 8 13 0.00 0.03
9:57 am 09:57 Cloudy with Light Snow -3 -19.4 -11 -23.9 68 68 NNW 17 28 30.66 1038 7 11 0.00 0.03
10:57 am 10:57 Mostly Sunny -1 -18.3 -11 -23.9 62 62 N 16 26 30.64 1038 10 16 0.00 0.03
11:57 am 11:57 Sunny 1 -17.2 -10 -23.3 59 59 NNW 15 24 30.64 1038 10 16 0.00 0.00
12:57 pm 12:57 Cloudy 3 -16.1 -9 -22.8 57 57 NNW 16 26 30.62 1037 10 16 0.00 0.00
1:57 pm 13:57 Cloudy 3 -16.1 -8 -22.2 60 60 NW 15 24 30.59 1036 10 16 0.00 0.00
2:57 pm 14:57 Cloudy 5 -15 -8 -22.2 54 54 NNW 14 22 30.57 1035 10 16 0.00 0.00
3:57 pm 15:57 Sunny 5 -15 -8 -22.2 54 54 NNW 15 24 30.58 1035 10 16 0.00 0.00
4:57 pm 16:57 Sunny 4 -15.6 -8 -22.2 57 57 NNW 12 19 30.57 1035 10 16 0.00 0.00
5:57 pm 17:57 Sunny 2 -16.7 -8 -22.2 63 63 NW 7 11 30.56 1035 10 16 0.00 0.00
6:57 pm 18:57 Clear 0 -17.8 -10 -23.3 62 62 NW 9 15 30.58 1036 10 16 0.00 0.00
7:57 pm 19:57 Clear -2 -18.9 -11 -23.9 65 65 NW 7 11 30.59 1036 10 16 0.00 0.00
8:57 pm 20:57 Clear -5 -20.6 -13 -25 68 68 WNW 8 13 30.59 1036 10 16 0.00 0.00
9:57 pm 21:57 Clear -5 -20.6 -13 -25 68 68 WNW 5 7 30.60 1036 10 16 0.00 0.00
10:57 pm 22:57 Clear -3 -19.4 -12 -24.4 65 65 W 9 15 30.60 1036 10 16 0.00 0.00
11:57 pm 23:57 Clear -7 -21.7 -15 -26.1 68 68 WNW 10 17 30.59 1036 10 16 0.00 0.00

Powered by AerisWeather